Date String (YYYY-MM-DD hh:mm:ss) UTC,Instrument flags,Ambient pressure (hPa),Sample flow (lpm),Bypass flow (lpm),Sample temperature (°C),Ambient temperature (°C),ASC tube jacket temperature (°C),LED temperature (°C),Box temperature (°C),Sample RH (%),Span deviation,Mass concentration (μg/m³),Mass concentration (μg/m³),Mass concentration (μg/m³)
DateTimeUTC,F1_M11,P_M11,Q1_M11,Q2_M11,T1_M11,T2_M11,T3_M11,T4_M11,T5_M11,U1_M11,ZSPAN_M11,X2_M11,X0_M11,X1_M11
2022-09-03 08:00:00,,0834.6,4.99,0.00,30.0,26.9,00.0,38.8,31.8,20.0,0000.0,0003.51,0005.40,0003.14
2022-09-03 08:01:00,,0834.7,5.00,0.00,30.0,27.2,00.0,38.7,31.6,20.0,0000.0,0003.55,0005.83,0003.15
2022-09-03 08:02:00,,0834.7,5.01,0.00,29.9,27.5,00.0,38.7,31.6,20.2,0000.0,0003.57,0007.13,0003.16
2022-09-03 08:03:00,,0834.7,4.99,0.00,29.9,27.8,00.0,38.7,31.6,20.2,0000.0,0003.57,0007.50,0003.17
2022-09-03 08:04:00,,0834.7,4.99,0.00,29.9,28.0,00.0,38.7,31.6,20.2,0000.0,0003.58,0007.50,0003.17
2022-09-03 08:05:00,,0834.6,5.01,0.00,29.9,28.3,00.0,38.7,31.7,20.2,0000.0,0003.59,0007.52,0003.16
2022-09-03 08:06:00,,0834.7,5.00,0.00,29.9,28.4,00.0,38.7,31.7,20.2,0000.0,0003.61,0007.62,0003.16
2022-09-03 08:07:00,,0834.7,5.00,0.00,29.9,28.5,00.0,38.7,31.7,20.2,0000.0,0003.61,0007.58,0003.15
2022-09-03 08:08:00,,0834.7,5.00,0.00,29.9,28.6,00.0,38.7,31.8,20.1,0000.0,0003.59,0007.48,0003.15
2022-09-03 08:09:00,,0834.6,4.98,0.00,29.9,28.7,00.0,38.7,31.8,20.0,0000.0,0003.57,0007.44,0003.14
2022-09-03 08:10:00,,0834.7,5.01,0.00,30.0,28.8,00.0,38.7,31.8,20.1,0000.0,0003.59,0007.47,0003.14
2022-09-03 08:11:00,,0834.6,4.99,0.00,30.0,28.9,00.0,38.7,31.9,20.0,0000.0,0003.54,0007.37,0003.13
2022-09-03 08:12:00,,0834.7,5.01,0.00,30.0,28.9,00.0,38.7,31.9,20.0,0000.0,0003.53,0007.63,0003.13
2022-09-03 08:13:00,,0834.7,5.00,0.00,30.0,29.0,00.0,38.8,31.9,19.9,0000.0,0003.53,0006.94,0003.13
2022-09-03 08:14:00,,0834.7,5.00,0.00,30.1,29.0,00.0,38.8,32.0,19.9,0000.0,0003.53,0006.30,0003.13
2022-09-03 08:15:00,,0834.7,5.01,0.00,30.1,29.1,00.0,38.8,32.0,19.8,0000.0,0003.52,0006.26,0003.13
2022-09-03 08:16:00,,0834.7,4.98,0.00,30.1,29.1,00.0,38.8,32.0,19.8,0000.0,0003.52,0006.35,0003.13
2022-09-03 08:17:00,,0834.7,5.01,0.00,30.2,29.2,00.0,38.8,32.0,19.7,0000.0,0003.54,0006.66,0003.14
2022-09-03 08:18:00,,0834.6,4.99,0.00,30.2,29.1,00.0,38.9,32.0,19.7,0000.0,0003.54,0006.97,0003.15
2022-09-03 08:19:00,,0834.7,5.00,0.00,30.2,27.8,00.0,38.9,32.0,19.6,0000.0,0003.54,0007.41,0003.16
2022-09-03 08:20:00,,0834.7,5.00,0.00,30.1,27.0,00.0,38.8,31.9,19.7,0000.0,0003.55,0007.50,0003.16
2022-09-03 08:21:00,,0834.7,5.00,0.00,30.1,27.1,00.0,38.8,31.8,19.7,0000.0,0003.56,0007.66,0003.16
2022-09-03 08:22:00,,0834.7,4.99,0.00,30.0,27.4,00.0,38.8,31.6,19.8,0000.0,0003.57,0008.17,0003.17
2022-09-03 08:23:00,,0834.7,5.02,0.00,30.0,27.7,00.0,38.7,31.6,19.8,0000.0,0003.56,0007.73,0003.17
2022-09-03 08:24:00,,0834.7,5.00,0.00,29.9,27.9,00.0,38.7,31.7,19.8,0000.0,0003.57,0007.67,0003.18
2022-09-03 08:25:00,,0834.6,5.00,0.00,29.9,28.2,00.0,38.7,31.7,19.8,0000.0,0003.58,0007.82,0003.18
2022-09-03 08:26:00,,0834.7,5.00,0.00,29.9,28.3,00.0,38.7,31.7,19.8,0000.0,0003.59,0007.88,0003.18
2022-09-03 08:27:00,,0834.7,5.00,0.00,29.9,28.5,00.0,38.7,31.7,19.9,0000.0,0003.60,0007.90,0003.18
2022-09-03 08:28:00,,0834.7,5.01,0.00,30.0,28.6,00.0,38.7,31.8,19.8,0000.0,0003.58,0007.79,0003.17
2022-09-03 08:29:00,,0834.7,4.99,0.00,30.0,28.7,00.0,38.7,31.8,19.8,0000.0,0003.56,0007.69,0003.16
2022-09-03 08:30:00,,0834.7,5.01,0.00,30.0,28.8,00.0,38.7,31.8,19.8,0000.0,0003.55,0007.43,0003.15
2022-09-03 08:31:00,,0834.6,5.00,0.00,30.0,28.9,00.0,38.7,31.9,19.7,0000.0,0003.51,0007.19,0003.14
2022-09-03 08:32:00,,0834.6,4.99,0.00,30.0,28.9,00.0,38.8,31.9,19.7,0000.0,0003.47,0006.79,0003.14
2022-09-03 08:33:00,,0834.6,5.01,0.00,30.1,29.0,00.0,38.8,31.9,19.7,0000.0,0003.47,0007.05,0003.13
2022-09-03 08:34:00,,0834.6,4.98,0.00,30.1,29.0,00.0,38.8,32.0,19.8,0000.0,0003.47,0007.59,0003.12
2022-09-03 08:35:00,,0834.6,5.01,0.00,30.1,29.1,00.0,38.8,32.0,19.9,0000.0,0003.44,0007.49,0003.11
2022-09-03 08:36:00,,0834.5,4.99,0.00,30.1,29.1,00.0,38.8,32.0,19.9,0000.0,0003.46,0007.50,0003.10
2022-09-03 08:37:00,,0834.5,5.01,0.00,30.2,29.2,00.0,38.9,32.0,19.8,0000.0,0003.45,0008.03,0003.10
2022-09-03 08:38:00,,0834.5,4.98,0.00,30.2,29.2,00.0,38.9,32.1,19.7,0000.0,0003.44,0008.21,0003.10
2022-09-03 08:39:00,,0834.6,4.99,0.00,30.2,28.2,00.0,38.9,32.0,19.5,0000.0,0003.43,0008.07,0003.10
2022-09-03 08:40:00,,0834.5,5.00,0.00,30.1,26.6,00.0,38.9,31.8,19.5,0000.0,0003.44,0007.95,0003.12
2022-09-03 08:41:00,,0834.5,5.00,0.00,30.1,26.2,00.0,38.8,31.7,19.6,0000.0,0003.45,0007.92,0003.13
2022-09-03 08:42:00,,0834.5,4.99,0.00,30.0,26.4,00.0,38.7,31.5,19.7,0000.0,0003.48,0007.99,0003.14
2022-09-03 08:43:00,,0834.5,5.01,0.00,29.9,26.7,00.0,38.7,31.4,19.9,0000.0,0003.50,0008.03,0003.14
2022-09-03 08:44:00,,0834.5,5.00,0.00,29.8,27.1,00.0,38.6,31.4,20.0,0000.0,0003.51,0007.65,0003.14
2022-09-03 08:45:00,,0834.5,4.99,0.00,29.8,27.5,00.0,38.6,31.5,20.0,0000.0,0003.49,0006.76,0003.13
2022-09-03 08:46:00,,0834.5,5.01,0.00,29.8,27.8,00.0,38.6,31.5,20.1,0000.0,0003.48,0006.69,0003.13
2022-09-03 08:47:00,,0834.6,5.00,0.00,29.8,28.0,00.0,38.6,31.5,20.1,0000.0,0003.43,0006.45,0003.12
2022-09-03 08:48:00,,0834.6,5.00,0.00,29.8,28.2,00.0,38.6,31.5,20.0,0000.0,0003.41,0005.56,0003.12
2022-09-03 08:49:00,,0834.6,5.01,0.00,29.8,28.3,00.0,38.6,31.6,20.0,0000.0,0003.41,0004.78,0003.12
2022-09-03 08:50:00,,0834.7,4.99,0.00,29.8,28.4,00.0,38.6,31.6,20.0,0000.0,0003.39,0004.72,0003.12
2022-09-03 08:51:00,,0834.6,5.01,0.00,29.8,28.5,00.0,38.6,31.6,20.1,0000.0,0003.40,0004.82,0003.12
2022-09-03 08:52:00,,0834.6,5.01,0.00,29.8,28.6,00.0,38.6,31.7,20.1,0000.0,0003.37,0004.73,0003.09
2022-09-03 08:53:00,,0834.7,4.99,0.00,29.9,28.7,00.0,38.6,31.7,20.1,0000.0,0003.34,0004.62,0003.08
2022-09-03 08:54:00,,0834.6,5.01,0.00,29.9,28.7,00.0,38.6,31.7,20.2,0000.0,0003.35,0004.76,0003.10
2022-09-03 08:55:00,,0834.7,4.99,0.00,29.9,28.8,00.0,38.6,31.8,20.2,0000.0,0003.37,0005.09,0003.10
2022-09-03 08:56:00,,0834.6,5.01,0.00,29.9,28.9,00.0,38.7,31.8,20.3,0000.0,0003.44,0006.45,0003.13
2022-09-03 08:57:00,,0834.6,4.99,0.00,30.0,28.9,00.0,38.7,31.8,20.3,0000.0,0003.52,0007.19,0003.16
2022-09-03 08:58:00,,0834.6,5.00,0.00,30.0,28.9,00.0,38.7,31.9,20.3,0000.0,0003.61,0007.47,0003.19
2022-09-03 08:59:00,,0834.6,4.99,0.00,30.0,29.0,00.0,38.7,31.9,20.3,0000.0,0003.72,0007.68,0003.23
